Regional Weather Roundup
Issued by NWS Little Rock, AR

Home | Current Version | Previous Version | Text Only | Print | Product List | Glossary On
Versions: 1 2 3 4 5 6 7 8 9 10 11 12 13 14 15 16 17 18 19 20 21 22 23 24 25 26 27 28 29 30 31 32
000
ASUS44 KLZK 190105
RWRLZK

WEATHER ROUNDUP FOR ARKANSAS
NATIONAL WEATHER SERVICE LITTLE ROCK AR
700 PM CST SUN FEB 18 2018

NOTE: "FAIR" INDICATES FEW OR NO CLOUDS BELOW 12,000 FEET WITH NO
SIGNIFICANT WEATHER AND/OR OBSTRUCTIONS TO VISIBILITY.

ARZ001-003-010-029-190200-
NORTHWEST ARKANSAS

CITY           SKY/WX    TMP DP  RH WIND       PRES   REMARKS
FAYETTEVILLE   CLOUDY    49  47  93 S6        29.90S
FORT SMITH     CLOUDY    51  47  86 E13       29.95R
HARRISON       CLOUDY    47  44  90 SE14      29.93F
BENTONVILLE    CLOUDY    52  46  80 S10       29.90
ROGERS         CLOUDY    51  44  77 SE13      29.88F
SILOAM SPGS    CLOUDY    51  46  83 S14       29.89R
HIGHFILL       CLOUDY    51  47  86 S15       29.88S
SPRINGDALE     CLOUDY    52  48  87 S10G17    29.90S
$$

ARZ004-005-016-190200-
NORTH CENTRAL ARKANSAS

CITY           SKY/WX    TMP DP  RH WIND       PRES   REMARKS
BATESVILLE     CLOUDY    48  45  89 SE6       30.05S
FLIPPIN        CLOUDY    50  44  80 S6        29.98F
MTN HOME       CLOUDY    48  44  86 S9        29.97F
$$

ARZ040-041-190200-
WEST CENTRAL ARKANSAS

CITY           SKY/WX    TMP DP  RH WIND       PRES   REMARKS
MENA           CLOUDY   N/A N/A N/A N3        29.98S
MOUNT IDA      CLOUDY    47  47 100 SE6       29.97S FOG
$$

ARZ009-017-025-026-028-190200-
NORTHEAST ARKANSAS

CITY           SKY/WX    TMP DP  RH WIND       PRES   REMARKS
JONESBORO      CLOUDY    52  49  89 S8        30.05F
NEWPORT          N/A     49  48  97 S10       30.05F
WALNUT RIDGE   CLOUDY    50  46  86 S9        30.05F
BLYTHEVILLE    CLOUDY    54  47  77 S7        30.06F
$$

ARZ022-023-033-042-044-190200-
CENTRAL ARKANSAS

CITY           SKY/WX    TMP DP  RH WIND       PRES   REMARKS
LITTLE ROCK    CLOUDY    48  48 100 SE9       30.03F FOG
N LITTLE ROCK    N/A     47  47  99 S9        30.01F
JACKSONVILLE   CLOUDY    49  49 100 SE9       30.02F
SEARCY         CLOUDY    49  32  52 S7        30.05F
HOT SPRINGS    FOG       48  48 100 E5        30.03R VSB 1
RUSSELLVILLE   CLOUDY    47  46  97 E6        30.00F FOG
CLINTON        CLOUDY    46  45  93 CALM      30.04R FOG
$$

ARZ036-190200-
EAST ARKANSAS

CITY           SKY/WX    TMP DP  RH WIND       PRES   REMARKS
WEST MEMPHIS   CLOUDY    53  51  93 S14       30.06F
$$

ARZ050-053-066-070-073-190200-
SOUTHWEST ARKANSAS

CITY           SKY/WX    TMP DP  RH WIND       PRES   REMARKS
ARKADELPHIA    CLOUDY    49  48  97 SE5       30.02F FOG
CAMDEN         CLOUDY    52  50  93 SE10G20   29.98F FOG
TEXARKANA      CLOUDY    52  52 100 E3        29.99S FOG
EL DORADO      CLOUDY    54  54 100 SE10      30.02F
DE QUEEN       CLOUDY    48  48 100 E7        29.98S FOG
$$

ARZ056-057-069-190200-
SOUTHEAST ARKANSAS

CITY           SKY/WX    TMP DP  RH WIND       PRES   REMARKS
PINE BLUFF     CLOUDY    51  51 100 SW5       30.05F FOG
STUTTGART      CLOUDY    50  49  96 SE8       30.05F FOG
MONTICELLO     FOG       54  52  93 SE9       30.05F VSB 1

$$






USA.gov is the U.S. government's official web portal to all federal, state and local government web resources and services.